Location: Newark
(51.1667°N, 71.4333°E)
Time: 15:25:23
(UTC+00:00)

ISS - Visible Passes

Search period start: 26 September 2020 00:00
Search period end: 06 October 2020 00:00
Orbit: 419 x 421 km, 51.6° (Epoch: 27 September)

Date Brightness Start Highest point End Pass type
(mag) Time Alt. Az. Time Alt. Az. Time Alt. Az.
26 Sep -3.8 15:07:56 10° W 15:11:13 83° NW 15:11:13 83° NW visible
27 Sep -3.8 14:20:39 10° W 14:24:03 80° N 14:25:44 27° E visible
27 Sep -1.2 15:57:32 10° W 15:58:42 20° W 15:58:42 20° W visible
28 Sep -3.7 13:33:23 10° W 13:36:46 81° N 13:40:09 10° E visible
28 Sep -3.4 15:10:15 10° W 15:13:12 60° WSW 15:13:12 60° WSW visible
29 Sep -3.8 14:22:59 10° W 14:26:22 85° S 14:27:42 34° ESE visible
29 Sep -0.8 15:59:58 10° W 16:00:40 14° W 16:00:40 14° W visible
30 Sep -3.7 13:35:41 10° W 13:39:05 85° N 13:42:13 12° E visible
30 Sep -2.5 15:12:34 10° W 15:15:11 36° SW 15:15:11 36° SW visible
01 Oct -3.3 14:25:15 10° W 14:28:34 54° SSW 14:29:43 34° SE visible
02 Oct -3.6 13:37:56 10° W 13:41:18 70° SSW 13:44:18 12° ESE visible
02 Oct -1.6 15:15:08 10° W 15:17:17 20° SW 15:17:17 20° SW visible
03 Oct -2.2 14:27:36 10° W 14:30:35 29° SSW 14:31:55 22° S visible
04 Oct -2.6 13:40:10 10° W 13:43:22 40° SSW 13:46:33 10° SE visible
05 Oct -1.1 14:30:28 10° WSW 14:32:23 14° SW 14:34:18 10° S visible
